This is the latest recevied weather packets stored in our database for station/object G4KVI. If no packets are shown the sender has not sent any weather packets the latest 10 day(s).
| Time | Temp. | Humidity | Pressure | Rain* | Wind** | Luminosity | Snow |
|---|---|---|---|---|---|---|---|
| 1787807703 | 17.78° C | 93% | 1009.6 hPa | 5.33 mm | - | 0 W/m² | - |
| 1787807403 | 17.78° C | 93% | 1009.7 hPa | 5.33 mm | - | 0 W/m² | - |
| 1787807103 | 17.78° C | 93% | 1009.7 hPa | 5.84 mm | - | 0 W/m² | - |
| 1787806803 | 17.78° C | 93% | 1009.6 hPa | 6.35 mm | - | 0 W/m² | - |
| 1787806503 | 17.78° C | 93% | 1009.5 hPa | 6.86 mm | - | 0 W/m² | - |
| 1787806203 | 17.78° C | 92% | 1009.9 hPa | 7.37 mm | - | 0 W/m² | - |
| 1787805903 | 17.78° C | 92% | 1009.8 hPa | 8.13 mm | - | 0 W/m² | - |
| 1787805603 | 17.78° C | 92% | 1010.1 hPa | 7.11 mm | - | 0 W/m² | - |
| 1787805303 | 17.78° C | 92% | 1010.1 hPa | 6.35 mm | - | 0 W/m² | - |
| 1787805003 | 17.78° C | 91% | 1009.9 hPa | 6.6 mm | - | 0 W/m² | - |
| 1787804703 | 17.78° C | 91% | 1010.3 hPa | 5.33 mm | - | 0 W/m² | - |
| 1787804403 | 17.78° C | 91% | 1010 hPa | 5.84 mm | - | 0 W/m² | - |
| 1787804103 | 17.78° C | 91% | 1010.2 hPa | 5.84 mm | - | 0 W/m² | - |
| 1787803803 | 17.78° C | 90% | 1010.1 hPa | 5.84 mm | - | 0 W/m² | - |
| 1787803503 | 17.78° C | 90% | 1010 hPa | 5.33 mm | - | 0 W/m² | - |
| 1787803203 | 17.78° C | 89% | 1009.8 hPa | 4.83 mm | - | 0 W/m² | - |
| 1787802903 | 17.78° C | 88% | 1010 hPa | 4.32 mm | - | 0 W/m² | - |
| 1787802603 | 17.78° C | 87% | 1009.9 hPa | 3.81 mm | - | 0 W/m² | - |
| 1787802303 | 17.78° C | 87% | 1009.7 hPa | 3.05 mm | - | 0 W/m² | - |
| 1787802003 | 18.33° C | 86% | 1009.7 hPa | 2.54 mm | - | 0 W/m² | - |
| 1787801703 | 18.33° C | 85% | 1009.9 hPa | 1.78 mm | - | 0 W/m² | - |
| 1787801403 | 18.33° C | 84% | 1009.8 hPa | 1.27 mm | - | 0 W/m² | - |
| 1787801103 | 18.33° C | 83% | 1010.2 hPa | 1.02 mm | - | 0 W/m² | - |
| 1787800803 | 18.33° C | 82% | 1009.9 hPa | 0.25 mm | - | 0 W/m² | - |
| 1787800503 | 18.33° C | 82% | 1010 hPa | 0 mm | - | 0 W/m² | - |
* Rain latest hour (hover to see other rain measurements)
** Current wind speed in m/s (hover to see current wind gust speed)